Regional Weather Roundup
Issued by NWS Wakefield, VA

Home | Current Version | Previous Version | Graphics & Text | Print | Product List | Glossary On
Versions: 1 2 3 4 5 6 7 8 9 10 11 12 13 14 15 16 17 18 19 20 21 22 23 24 25 26 27
000
ASUS41 KAKQ 280215
RWRAKQ

REGIONAL WEATHER ROUNDUP
NATIONAL WEATHER SERVICE WAKEFIELD VA
1000 PM EDT MON MAR 27 2017

Note: "fair" indicates few or no clouds below 12,000 feet with no
significant weather and/or obstructions to visibility. * = Denotes
station may not report precipitation (e.g., rain,snow,etc.),
thunder or fog.

VAZ042-051-052>054-056-280300-
NORTHERN VIRGINIA

CITY           SKY/WX    TMP DP  RH WIND       PRES   REMARKS
WASH NATIONAL  LGT RAIN  66  58  75 N8        29.94R
DULLES         CLOUDY    62  59  90 SE6       29.93S
FORT BELVOIR   CLOUDY    66  55  68 CALM      29.93R
QUANTICO       MOCLDY    64  56  75 SW8       29.93S
FREDERICKSBRG* CLOUDY    71  58  62 S7        29.93R
STAFFORD*      CLOUDY    68  56  64 S6        29.97S
WARRENTON      MOCLDY    68  54  60 CALM      29.93R
CULPEPER*      CLOUDY    65  61  86 SW3       29.94R
MANASSAS*        N/A    N/A N/A N/A N5        29.94R
LEESBURG*      CLOUDY    68  61  77 SE3       29.94S
WINCHESTER     CLOUDY    59  55  88 CALM      29.92S
FRONT ROYAL*   CLOUDY    61  59  94 S3        29.92S
LURAY*         CLOUDY    64  59  82 S5        29.93F
$$

VAZ048-049-060>072-079>083-280300-
CENTRAL AND SOUTH CENTRAL VIRGINIA

CITY           SKY/WX    TMP DP  RH WIND       PRES   REMARKS
RICHMOND       CLOUDY    67  58  72 S9        29.95S
CHESTERFIELD*  FAIR      68  45  42 S8        29.97R
PETERSBURG*    CLOUDY    64  56  74 CALM      29.97S
HANOVER        CLOUDY    69  55  60 S7        29.96R
TAPPAHANNOCK*  CLOUDY    68  50  53 S5        29.97R
QUINTON*       FAIR      68  58  71 CALM      29.95S
CHARLOTTSVILLE MOCLDY    68  59  73 CALM      29.94R
GORDONSVILLE*  CLOUDY    63  57  80 CALM      29.94S
ORANGE*        CLOUDY    63  55  77 CALM      29.96R
LOUISA*        CLOUDY    72  61  68 CALM      29.94S
BUMPASS*       FAIR      67  56  68 S9        29.95R
FARMVILLE*     CLOUDY    66  58  77 CALM      29.94S
CREWE*         FAIR      66  61  81 S5        29.95S
FORT PICKETT*  FAIR      67  53  61 S7        29.97R
CHASE CITY*    FAIR      63  60  91 CALM      29.96S
CLARKSVILLE*   FAIR      66  59  77 S3        29.95F
SOUTH HILL*    MOCLDY    65  59  78 S6        30.02S
LAWRENCEVILLE* FAIR      65  57  74 CALM      29.97S
EMPORIA*       CLOUDY    61  54  77 SE3       29.99R
$$

VAZ088>098-280300-
SOUTHEAST VIRGINIA

CITY           SKY/WX    TMP DP  RH WIND       PRES   REMARKS
NORFOLK        PTCLDY    68  54  60 S14       29.98S
VIRGINIA BEACH MOCLDY    66  53  63 S10       29.98S
NORFOLK NAVAL  MOCLDY    69  53  56 S12G18    29.99S
WEST POINT*    MOCLDY    65  55  68 S3        29.97S
SALUDA*        FAIR      65  57  74 S5        29.96R
NEWPORT NEWS   CLEAR     67  55  65 S8        29.97S
LANGLEY AFB    PTCLDY    67  56  67 S12       29.97S
FORT EUSTIS    PTCLDY    66  55  68 S6        29.95S
WILLIAMSBURG*  CLEAR     64  57  77 CALM      29.97F
HR EXEC AP*    FAIR      68  54  60 S10       29.97S
FRANKLIN*      PTCLDY    65  55  68 S6        29.98S
US460-WAKEFLD  PTCLDY    65  56  72 CALM      29.97S
$$

VAZ020-022-025-037-045-280300-
WEST CENTRAL AND SOUTHWEST VIRGINIA

CITY           SKY/WX    TMP DP  RH WIND       PRES   REMARKS
STAUNTON*      CLOUDY    57  55  91 CALM      29.96F
WAYNESBORO*    CLOUDY    59  59 100 CALM      29.96S
HOT SPRINGS VA CLOUDY    57  48  72 S6        30.02F
LYNCHBURG      CLOUDY    64  58  80 S6        29.96S
DANVILLE       CLOUDY    67  58  72 SW3       29.95S
SOUTH BOSTON*  FAIR      67  56  68 SE5       29.95S
MARTINSVILLE   PTCLDY    59  58  96 CALM      29.99S
ROANOKE        CLOUDY    70  52  52 W5        29.96R
BLACKSBURG     CLOUDY    62  53  72 CALM      30.01R
DUBLIN*        MOCLDY    62  53  72 SW3       29.99S
MARION*        MOCLDY    62  53  72 CALM      30.01S
HILLSVILLE*    CLEAR     58  52  78 S5        30.00R
RICHLANDS*     FAIR      64  48  56 SE5       29.98R
WISE*          CLOUDY    64  46  52 S6        29.97S
ABINGDON*      MOCLDY    63  50  63 CALM      29.95S
$$

MDZ021>025-VAZ099-100-280300-
SOUTHERN MARYLAND AND THE DELMARVA PENINSULA

CITY           SKY/WX    TMP DP  RH WIND       PRES   REMARKS
PATUXENT RIVER MOCLDY    54  52  93 E9        29.95R
BAY BRIDGE APT MOCLDY    55  50  82 SE3       29.94S FOG
LEONARDTOWN    MOCLDY    66  55  68 S3        29.96S
DOVER          PTCLDY    53  53 100 SE5       29.95S
GEORGETOWN     CLOUDY    62  53  72 S8        29.98R
EASTON         CLEAR     64  55  72 S8        29.99R
CAMBRIDGE      CLEAR     61  55  82 S8        29.95F
SALISBURY      CLEAR     59  53  80 SE3       29.98R
OCEAN CITY     PTCLDY    54  48  80 S7        30.00R
WALLOPS ISLAND PTCLDY    55  52  89 S13       29.99S
ACCOMACK*      CLEAR     61  52  73 S8        29.99R
$$

NCZ012>017-030>032-280300-
NORTH CENTRAL AND EASTERN NORTH CAROLINA

CITY           SKY/WX    TMP DP  RH WIND       PRES   REMARKS
ROANOKE RAPIDS FAIR      64  55  72 S6        29.98S
RALEIGH        MOCLDY    70  57  63 S8        29.98S
ELIZABETH CITY CLEAR     65  54  67 S10       30.02R
AHOSKIE*         N/A     63  55  75 S6        30.00R
EDENTON*       CLEAR     64  56  73 S8        30.02S
CURRITUCK*     CLEAR     66  54  65 S5        30.02S
KILL DEVIL HLS NOT AVBL
MANTEO         CLEAR     61  57  88 SW7       30.04S
CAPE HATTERAS  CLEAR     70  58  65 SW12G17   30.05S
TARBORO*       NOT AVBL
GOLDSBORO      PTCLDY    68  57  67 S8        30.00R
WASHINGTON     CLEAR     65  54  68 S7        30.03R
GREENVILLE     CLEAR     68  54  60 S13       30.03R
NEW BERN       CLEAR     63  56  78 S6        30.05R
WILMINGTON     CLEAR     63  56  78 S5        30.05R
$$

VAZ048-280300-
ELSEWHERE

CITY           SKY/WX    TMP DP  RH WIND       PRES   REMARKS
HARRISBURG PA  CLOUDY    52  50  93 CALM      29.94F
BALTIMORE      CLOUDY    58  55  90 CALM      29.94R
ANNAPOLIS      CLOUDY    55  53  93 SE5       29.94R
ANDREWS AFB    MOCLDY    62  55  76 SE5       29.92S
PHILADELPHIA   CLOUDY    52  50  93 E8        29.98R
HENDERSON NC   PTCLDY    65  55  70 S5        29.97S
GREENSBORO     MOCLDY    69  59  70 S12       29.96R
ROCKY MOUNT    PTCLDY    68  57  68 S8        30.01R
$$

VAZ100-280300-
MARINE

STATION/POSITION TIME  TEMP    WIND        PRES    WAVE   SWELL
                       AIR SEA DIR/SP/G            HT/PER HT/PER
                 (UTC) (F)     (DEG/KT/KT) (MB)    (FT/S) (FT/S)
CAPE MAY NJ      0142   55 47  170/  8/ 11 1014.8R
LEWES DE         0148          190/  5/  8   N/A
OCEAN-CITY-INLET 0148          210/  9/ 10   N/A
WACHAPREAGUE VA  0142   57 55  220/  5/  7 1015.3R
THOMAS POINT MD  0200   58 46  170/  5/  6   N/A
GOOSES REEF MD   0150   53     200/ 14/ 16 1014.5R
COVE POINT MD    0142   52     170/ 13/ 14 1014.8R
SOLOMONS ISLAND  0142   61 46  100/  5/  5   N/A
BISHOPS HEAD MD  0142   56 55  170/ 12/ 12 1014.9R
PINEY POINT MD   0148          160/  7/  7   N/A
POTOMAC MD       0150   53     150/  8/ 10 1013.6R
CAMBRIDGE MD     0142   63 46  170/  4/ 13 1013.7R
LEWISETTA VA     0142   68 54  210/ 10/ 12 1014.0R
RAPPAHANNOCK LGT 0148          150/ 11/ 11 1015.5R
STINGRAY PT      0150   53     190/ 10/ 10 1014.7R
YORK RVR RNG VA  0142   58     170/ 17/ 18 1014.1R
YORKTOWN VA      0142   68 51  190/  7/  8 1014.4S
JAMESTOWN VA     0150   65     120/  6/  6   N/A
DOMINION TERM VA 0142   62     170/ 11/ 13 1015.2R
KIPTOPEKE VA     0148          170/ 11/ 12   N/A
CHES BAY BRIDGE  0142   67 48  200/ 15/ 19 1015.1F
CAPE HENRY VA    0142   69     180/ 10/ 15   N/A
WILLOUBY STN VA  0142   69     180/ 15/ 18 1016.1R
S CRANEY ISL VA  0142   65     190/ 10/ 13 1015.2R
CAPE HENRY BUOY  0142      51                N/A     3/ 9   2/11
CAPE CHARLES BUO 0151      49                N/A     3/ 8   2/11
OFFSHORE WE BUOY 0151      51                N/A     3/10   2/11
64NM E OF VA BCH 0150   55 49  180/ 10/ 12 1016.6S   3/ 8   3/ 8
DUCK PIER NC     0142   65 49  190/ 13/ 17 1016.1R
44100 DUCK FRF   0105      51                N/A     3/ 8   2/11
44056 DUCK FRF   0130      53                N/A     3/ 9   2/11
OREGON INLET NC  0142   59 61  170/  8/ 10 1017.1S
HATTERAS NC      0148          190/  6/ 11   N/A
DIAMOND SHLS NC  0150   71 75  200/ 14/ 16 1017.8S   4/ 9   3/ 9
CAPE LOOKOUT NC  0200   66     170/  7/  8 1017.4R
$$




USA.gov is the U.S. government's official web portal to all federal, state and local government web resources and services.